Tracking 29892 objects as of 21-Nov-2024
HD Live streaming from Space Station
objects crossing your sky now

DELTA 1 DEB

Track DELTA 1 DEB now!
10-day predictions


NORAD ID: 7065
Int'l Code: 1973-086BH
Perigee: 1,502.0 km
Apogee: 1,577.2 km
Inclination: 101.8 °
Period: 116.7 minutes
Semi major axis: 7910 km
RCS: 0.0791 m2 (small)
Launch date: November 6, 1973
Source: United States (US)
Launch site: AIR FORCE WESTERN TEST RANGE (AFWTR)

Note: This is SATELLITE DEBRIS
Your satellite tracking list
Your tracking list is empty




NASA's NSSDC Master Catalog

Two Line Element Set (TLE):
1 07065U 73086BH  24325.42452205  .00000397  00000-0  35436-2 0  9994
2 07065 101.8053 308.8843 0047571  55.9393  98.7428 12.33926347293226
Source of the keplerian elements: AFSPC